Regional Weather Roundup
Issued by NWS

Home | Current Version | Previous Version | Graphics & Text | Print | Product List | Glossary On
Versions: 1 2 3 4 5 6 7 8 9 10 11 12 13 14 15 16 17 18 19 20 21 22 23 24 25 26 27 28 29 30 31 32 33 34 35 36 37 38 39 40 41 42 43 44 45 46 47 48 49 50
000
ASUS45 KPSR 272310
RWRAZ

ARIZONA HOURLY REGIONAL WEATHER ROUNDUP
NATIONAL WEATHER SERVICE PHOENIX AZ
400 PM MST THU JUL 27 2017

NOTE: FAIR INDICATES FEW OR NO CLOUDS BELOW 12,000 FEET WITH NO
SIGNIFICANT WEATHER AND/OR OBSTRUCTIONS TO VISIBILITY.

AZZ001>003-036-280000-
NORTHWEST ARIZONA

CITY           SKY/WX    TMP DP  RH WIND       PRES   REMARKS
BULLHEAD CITY  MOSUNNY  111  43  10 S9        29.74F HX 106
KINGMAN        SUNNY     99  46  16 W8        29.98F
$$

AZZ004>008-015-016-018-280000-
NORTH CENTRAL ARIZONA

CITY           SKY/WX    TMP DP  RH WIND       PRES   REMARKS
GRAND CANYON   MOSUNNY   83  50  31 W8        30.24F
WILLIAMS       DRIZZLE   68  63  83 NE7       30.30S
PRESCOTT       PTSUNNY   89  61  38 CALM      30.12F
FLAGSTAFF      TSTM      63  59  87 W12       30.33R
PAYSON         CLOUDY    70  63  78 E7        30.21R THUNDER
PAGE           PTSUNNY   96  51  21 W5        30.00F
$$

AZZ009>014-017-280000-
NORTHEAST ARIZONA

CITY           SKY/WX    TMP DP  RH WIND       PRES   REMARKS
WINSLOW        CLOUDY    85  56  37 SW20      30.10F
SAINT JOHNS    LGT RAIN  71  62  73 SE5       30.21R
WINDOW ROCK    CLOUDY    80  53  39 SW7       30.23F
SHOW LOW       CLOUDY    66  55  68 S17       30.26F
$$

AZZ540-542>544-546-548-280000-
GREATER PHOENIX AREA

CITY           SKY/WX    TMP DP  RH WIND       PRES   REMARKS
PHOENIX        PTSUNNY  107  55  18 VRB3      29.76F HX 106
BUCKEYE          N/A    108  54  16 W9G17     29.76F HX 106
GLENDALE       PTSUNNY  109  54  16 S16G23    29.77F HX 108
LUKE AFB       SUNNY    108  53  16 SW14      29.74F HX 106
DEER VALLEY    MOSUNNY  105  55  19 MISG      29.78F HX 104
SCOTTSDALE     PTSUNNY  107  54  17 SW6       29.80F HX 105
MESA-FALCON    MOSUNNY  106  59  21 NW9       29.80F HX 106
MESA-GATEWAY   PTSUNNY  106  55  18 W3        29.80F HX 105
CHANDLER       SUNNY    108  54  16 W14       29.78F HX 106
$$

AZZ539-553-280000-
SOUTHWEST MARICOPA COUNTY AND PINAL COUNTY

CITY           SKY/WX    TMP DP  RH WIND       PRES   REMARKS
CASA GRANDE    SUNNY    105  58  21 NW8       29.81F HX 105
GILA BEND      MOSUNNY  109  51  14 W9        29.75F HX 106
$$

AZZ503-504-507>509-280000-
SOUTHEAST ARIZONA

CITY           SKY/WX    TMP DP  RH WIND       PRES   REMARKS
TUCSON         PTSUNNY   98  59  27 VRB7      29.92F
DAVIS-MONTHAN  CLOUDY   103  58  22 SW9       29.91F HX 102
RYAN FIELD     SUNNY    100  55  22 W5        29.90F
NOGALES        CLOUDY    91  59  33 NW6       30.02F
SIERRA VISTA   PTSUNNY   84  59  43 N3        30.10F
DOUGLAS        PTSUNNY   84  60  44 N7        30.03F
SAFFORD        PTSUNNY   95  57  27 W3        29.92F
$$

AZZ532-280000-
SOUTHWEST ARIZONA

CITY           SKY/WX    TMP DP  RH WIND       PRES   REMARKS
YUMA           MOSUNNY  110  52  14 S8        29.72F HX 107
$$

CAZ041-043-047-048-061-525>527-560>570-280000-
SOUTHERN CALIFORNIA

CITY           SKY/WX    TMP DP  RH WIND       PRES   REMARKS
DOWNTOWN L.A.  MOSUNNY   79  61  53 VRB6      29.88F
L.A. AIRPORT   PTSUNNY   74  65  73 W17       29.90F
SAN DIEGO      MOSUNNY   76  64  66 NW12      29.91F
BURBANK        MOSUNNY   91  60  35 S12       29.88F
ONTARIO        PTSUNNY   95  58  28 W12G22    29.88F
RIVERSIDE      MOSUNNY   96  61  31 W16G23    29.86F
PALM SPRINGS   SUNNY    113  53  14 NW18G25   29.74F HX 111
EL CENTRO NAS  MOSUNNY  110  44  11 SE7       29.72F HX 105
IMPERIAL       SUNNY    111  55  16 SW9       29.69F HX 110
BLYTHE         PTSUNNY  111  53  14 CALM      29.72F HX 109
NEEDLES        MOSUNNY  114  38   7 SW16      29.75F HX 107
$$

NVZ020-UTZ003-280000-
SOUTHERN NEVADA-UTAH

CITY           SKY/WX    TMP DP  RH WIND       PRES   REMARKS
LAS VEGAS      MOSUNNY  104  53  18 VRB7      29.85F HX 102
SALT LAKE CITY MOSUNNY   91  54  28 N10       30.08F
$$

NMZ009-TXZ055-280000-
NEW MEXICO-WEST TEXAS

CITY           SKY/WX    TMP DP  RH WIND       PRES   REMARKS
ALBUQUERQUE    MOSUNNY   88  53  30 SW9       30.11F
EL PASO        CLOUDY    76  62  62 E12       30.06R
$$


........................KEY........................
SKY/WX - SKY CONDITION/WEATHER
TMP    - TEMPERATURE IN FAHRENHEIT
DP     - DEW POINT IN FAHRENHEIT
RH     - RELATIVE HUMIDITY IN PERCENT
WIND   - DIRECTION AND SPEED IN MILES PER HOUR (MPH)
VRB    - VARIABLE WIND DIRECTION
PRES   - MEAN SEA LEVEL PRESSURE IN INCHES OF MERCURY
         F - FALLING PRESSURE   R - RISING PRESSURE
         S - STEADY PRESSURE
VSB    - VISIBILITY IN MILES
HX     - HEAT INDEX IN FAHRENHEIT
WCI    - WIND CHILL INDEX IN FAHRENHEIT
TC     - TEMPERATURE IN CELSIUS WHICH IS ALSO KNOWN AS
         TEMPERATURE IN CENTIGRADE
AFB    - AIR FORCE BASE
         LUKE AFB IS LUKE AIR FORCE BASE
         DAVIS-MONTHAN IS DAVIS-MONTHAN AIR FORCE BASE
NAS    - NAVAL AIR STATION
         EL CENTRO NAS IS EL CENTRO NAVAL AIR STATION
N/A    - NOT AVAILABLE




USA.gov is the U.S. government's official web portal to all federal, state and local government web resources and services.